User: anonymous   Login
Location: Unspecified
(0.0000°N, 0.0000°E)
Time: 19:17:16
(UTC+00:00)
Language:

STARLINK-34138 - Orbit

View from above orbital plane
View from above orbital plane
View from above satellite
View from above satellite

Ground track
Ground track

The orbit is defined by the following mean orbital elements,

1 63971U          26145.23769240 +.00000000 +00000-0 +51172-3 0 00009
2 63971  42.9984 100.4169 0001059 275.0513  85.0217 15.27592651    09
Epoch (UTC): 25 May 2026 05:42:16
Eccentricity: 0.0001059
inclination: 42.9984°
perigee height: 482 km
apogee height: 484 km
right ascension of ascending node: 100.4169°
argument of perigee: 275.0513°
revolutions per day: 15.27592651
mean anomaly at epoch: 85.0217°

The dashed part of the orbit path shows where the satellite is in the earth's shadow,  

DLR